DW9433 Weather Reports


Display with metric or nautical units.
time (UTC)temp
F
wind
direction
speed
MPH
gust
MPH
rain 1hr
in
rain 24hr
in
rain mn
in
humidity
%
barometer
mb
20260904204553 99 25 0.0 3.0 0.00 0.00 0.00 47 1011.9
20260904203050 100 360 0.0 2.0 0.00 0.00 0.00 44 1012.1
20260904201548 101 360 0.0 4.0 0.00 0.00 0.00 44 1012.3
20260904200046 100 57 0.0 0.0 0.00 0.00 0.00 47 1012.6
20260904194552 100 360 0.0 1.0 0.00 0.00 0.00 49 1012.9
20260904193043 101 341 0.0 0.0 0.00 0.00 0.00 47 1013.2
20260904191544 101 304 0.0 1.0 0.00 0.00 0.00 47 1013.4
20260904190040 101 186 0.0 0.0 0.00 0.00 0.00 47 1013.5
20260904184537 100 71 0.0 1.0 0.00 0.00 0.00 49 1013.6
20260904183039 99 5 0.0 5.0 0.00 0.00 0.00 50 1013.8
20260904181535 99 139 0.0 4.0 0.00 0.00 0.00 50 1014.1
20260904180035 99 5 0.0 1.0 0.00 0.00 0.00 50 1014.3
20260904174557 99 43 0.0 1.0 0.00 0.00 0.00 51 1014.5
20260904173032 99 161 0.0 1.0 0.00 0.00 0.00 52 1014.6
20260904171528 97 167 0.0 5.0 0.00 0.00 0.00 53 1014.8
20260904170026 97 22 0.0 1.0 0.00 0.00 0.00 56 1015.0
20260904164526 97 13 0.0 1.0 0.00 0.00 0.00 55 1015.1
20260904163025 97 46 0.0 1.0 0.00 0.00 0.00 56 1015.2
20260904161524 96 328 0.0 2.0 0.00 0.00 0.00 56 1015.2
20260904160024 97 24 0.0 1.0 0.00 0.00 0.00 57 1015.2
20260904154521 96 37 0.0 0.0 0.00 0.00 0.00 58 1015.3
20260904153023 95 200 0.0 0.0 0.00 0.00 0.00 60 1015.3
20260904151514 94 202 0.0 0.0 0.00 0.00 0.00 62 1015.2
20260904150013 93 200 0.0 0.0 0.00 0.00 0.00 63 1015.1
20260904144508 92 96 0.0 2.0 0.00 0.00 0.00 65 1015.1
20260904143005 90 196 0.0 1.0 0.00 0.00 0.00 67 1015.1
20260904141601 89 266 0.0 0.0 0.00 0.00 0.00 69 1015.1
20260904140055 86 318 0.0 0.0 0.00 0.00 0.00 74 1015.1
20260904134551 85 319 0.0 0.0 0.00 0.00 0.00 78 1015.0
20260904133054 82 319 0.0 0.0 0.00 0.00 0.00 82 1014.9
20260904131544 80 319 0.0 0.0 0.00 0.00 0.00 88 1014.9
20260904130042 77 319 0.0 0.0 0.00 0.00 0.00 92 1014.9
20260904124545 76 319 0.0 0.0 0.00 0.00 0.00 93 1014.8
20260904123103 75 319 0.0 0.0 0.00 0.00 0.00 94 1014.7
20260904121538 75 319 0.0 0.0 0.00 0.00 0.00 93 1014.5
20260904120039 75 319 0.0 0.0 0.00 0.00 0.00 94 1014.3
20260904114536 74 319 0.0 0.0 0.00 0.00 0.00 94 1014.2
20260904113047 74 319 0.0 0.0 0.00 0.00 0.00 94 1014.1
20260904111533 74 319 0.0 0.0 0.00 0.00 0.00 94 1014.0
20260904110038 74 319 0.0 0.0 0.00 0.00 0.00 93 1013.9
20260904104531 75 319 0.0 0.0 0.00 0.00 0.00 93 1013.8
20260904103031 75 319 0.0 0.0 0.00 0.00 0.00 93 1013.7
20260904101528 75 319 0.0 0.0 0.00 0.00 0.00 93 1013.7
20260904100026 75 319 0.0 0.0 0.00 0.00 0.00 93 1013.6
20260904094525 75 319 0.0 0.0 0.00 0.00 0.00 93 1013.5
20260904093025 75 319 0.0 0.0 0.00 0.00 0.00 93 1013.5
20260904091523 75 319 0.0 0.0 0.00 0.00 0.00 92 1013.3
20260904090022 76 319 0.0 0.0 0.00 0.00 0.00 92 1013.3
20260904084522 76 319 0.0 0.0 0.00 0.00 0.00 92 1013.2
20260904083023 76 319 0.0 0.0 0.00 0.00 0.00 92 1013.1
20260904081517 76 319 0.0 0.0 0.00 0.00 0.00 91 1013.0
20260904080017 76 319 0.0 0.0 0.00 0.00 0.00 91 1013.0
20260904074516 77 319 0.0 0.0 0.00 0.00 0.00 91 1012.9
20260904073015 77 319 0.0 0.0 0.00 0.00 0.00 90 1013.0
20260904071515 77 319 0.0 0.0 0.00 0.00 0.00 90 1013.1
20260904070032 77 319 0.0 0.0 0.00 0.00 0.00 90 1013.0
20260904064510 78 319 0.0 0.0 0.00 0.00 0.00 89 1013.0
20260904063014 78 319 0.0 0.0 0.00 0.00 0.00 89 1013.2
20260904061508 78 319 0.0 0.0 0.00 0.00 0.00 89 1013.3
20260904060007 78 319 0.0 0.0 0.00 0.00 0.00 88 1013.1
20260904054506 78 319 0.0 0.0 0.00 0.00 0.00 88 1013.1
20260904053005 79 319 0.0 0.0 0.00 0.00 0.00 87 1013.1
20260904051503 79 319 0.0 0.0 0.00 0.00 0.00 86 1013.1
20260904050059 79 319 0.0 0.0 0.00 0.00 0.00 86 1013.1
20260904044610 80 319 0.0 0.0 0.00 0.00 0.00 86 1013.1
20260904043059 80 319 0.0 0.0 0.00 0.00 0.00 85 1013.1
20260904041559 80 319 0.0 0.0 0.00 0.00 0.00 85 1013.2
20260904040058 81 319 0.0 0.0 0.00 0.00 0.00 84 1013.2
20260904034600 81 319 0.0 0.0 0.00 0.00 0.00 84 1013.2
20260904033058 81 319 0.0 0.0 0.00 0.00 0.00 84 1013.3
20260904031556 81 319 0.0 0.0 0.00 0.00 0.00 83 1013.4
20260904030059 81 321 0.0 0.0 0.00 0.00 0.00 84 1013.4
20260904024559 82 321 0.0 0.0 0.00 0.00 0.00 84 1013.2
20260904023100 82 320 0.0 0.0 0.00 0.00 0.00 83 1013.1
20260904021556 83 321 0.0 0.0 0.00 0.00 0.00 81 1013.1
20260904020055 83 321 0.0 0.0 0.00 0.00 0.00 80 1012.9
20260904014554 84 321 0.0 0.0 0.00 0.00 0.00 79 1012.7
20260904013053 84 321 0.0 0.0 0.00 0.00 0.00 78 1012.7
20260904011608 85 321 0.0 0.0 0.00 0.00 0.00 76 1012.5
20260904010105 86 321 0.0 0.0 0.00 0.00 0.00 75 1012.4
20260904004556 87 321 0.0 0.0 0.00 0.00 0.00 74 1012.3
20260904003052 88 321 0.0 0.0 0.00 0.00 0.00 72 1012.4
20260904001552 89 321 0.0 0.0 0.00 0.00 0.00 69 1012.4
20260904000058 90 321 0.0 0.0 0.00 0.00 0.00 67 1012.1
20260903234550 91 320 0.0 0.0 0.00 0.00 0.00 66 1012.2
20260903233050 92 320 0.0 0.0 0.00 0.00 0.00 64 1012.1
20260903231550 93 320 0.0 0.0 0.00 0.00 0.00 58 1012.0
20260903230050 94 22 0.0 0.0 0.00 0.00 0.00 60 1011.9
20260903224548 95 22 0.0 0.0 0.00 0.00 0.00 54 1011.8
20260903223050 96 22 0.0 0.0 0.00 0.00 0.00 52 1011.8
20260903221547 97 22 0.0 0.0 0.00 0.00 0.00 51 1011.8
20260903220057 96 22 0.0 0.0 0.00 0.00 0.00 53 1011.7
20260903214546 96 22 0.0 0.0 0.00 0.00 0.00 54 1011.8
20260903213055 95 22 0.0 0.0 0.00 0.00 0.00 54 1011.9
20260903211551 95 22 0.0 0.0 0.00 0.00 0.00 56 1012.0